{"data":{"norad_id":60749,"intl_designator":"2024-153E","name":"2024-153E","alt_names":[],"object_type":"PAYLOAD","status":"ACTIVE","operator":null,"country":"PRC","launch_date":"2024-08-29","launch_site_code":"YSLA","launch_vehicle":null,"mission":null,"orbit_class":"UNKNOWN","rcs_meters":null,"size_class":null,"mass_kg":null,"dimensions":null,"purposes":[],"wikipedia_slug":null,"has_3d_model":false,"image_url":null,"decayed_at":null,"tle_current":{"epoch":"2026-09-22T23:16:38.407008Z","epoch_age_seconds":78247,"freshness":"FRESH","line1":"1 60749U 24153E   26265.96988897  .00011676  00000+0  41571-3 0  9997","line2":"2 60749  97.6829  46.2204 0000633 200.6428 159.4786 15.29116465114760","mean_motion":15.29116465,"eccentricity":6.33e-5,"inclination_deg":97.6829,"raan_deg":46.2204,"arg_perigee_deg":200.6428,"mean_anomaly_deg":159.4786,"bstar":0.00041571,"rev_number":11476,"period_min":94.172028943525,"perigee_km":478.0181977876,"apogee_km":478.88624198284,"semimajor_km":6856.5892198852,"source":"CELESTRAK","updated_at":"2026-09-23T09:00:20.718713Z"}}}